[[{"header":{"parameterUnit":"m.s-1","parameterCategory":1,"la1":30.2991,"la2":30.254,"lo1":-89.0895,"lo2":-89.0444,"dy":0.0017,"dx":0.0017,"nx":28,"ny":28,"refTime":"2024-05-29T21:00:00:Z","depth":0,"parameterNumber":2,"parameterNumberName":"U-component_of_WINDS"},"data":[0,0,0,0,0,0,0,0,0,0,0,0,0,0,0,0,0,0,0,0,0,0,0,0,0,0,0,0,0,0,0,0,0,0,0,0,0,0,0,0,0,0,0,0,0,0,0,0,0,0,0,0,0,0,0,0,0,0,0.1659,0.1659,0,0.1716,0.1716,0.1717,0.1755,0.1755,0.1755,0.1755,0.181,0.1811,0.1812,0,0,0,0,0,0,0,0,0,0,0,0,0,0.1579,0.158,0.1659,0.1659,0.166,0.1715,0.1716,0.1717,0.1754,0.1755,0.1755,0.1755,0.1809,0.1811,0.1812,0,0,0,0,0,0,0,0,0,0,0,0,0,0.1622,0.1581,0.1659,0.1686,0.1689,0.1715,0.1716,0.1717,0.1754,0.1755,0.1755,0.1756,0.1809,0.1811,0.1813,0.1816,0,0,0.1818,0.1819,0,0,0,0,0,0,0,0,0.162,0.1625,0.1681,0.1684,0.1687,0.1728,0.1708,0.175,0.1754,0.1729,0.1755,0.1756,0.1782,0.1786,0.1796,0.1818,0.1821,0.1818,0.1819,0.182,0.1821,0,0,0,0,0,0,0,0.1617,0.1623,0.1681,0.1682,0.1686,0.1694,0.17,0.1716,0.1753,0.1732,0.1734,0.1741,0.1784,0.1794,0.1797,0.1821,0.1818,0.182,0.1821,0.1822,0.1848,0.1848,0,0,0,0,0,0,0.161,0.162,0.1679,0.1683,0.1654,0.1695,0.1702,0.1715,0.1753,0.1759,0.174,0.1742,0.1791,0.1795,0.18,0.1805,0.182,0.1822,0.1823,0.1849,0.1848,0.1848,0,0,0,0,0,0,0.1608,0.1615,0.1677,0.1652,0.1661,0.1696,0.171,0.1716,0.1726,0.1759,0.1766,0.1744,0.1791,0.1797,0.1811,0.1808,0.1823,0.1824,0.1849,0.1848,0.1848,0.1817,0,0,0,0,0,0,0.1606,0.1614,0.1617,0.1652,0.1662,0.1689,0.1709,0.1716,0.1729,0.1732,0.1765,0.177,0.1792,0.1809,0.1813,0.181,0.1826,0.185,0.1849,0.1848,0.1818,0.1815,0.1813,0,0,0,0,0,0.1603,0.1605,0.1617,0.1624,0.1666,0.1689,0.1694,0.172,0.1729,0.1731,0.1752,0.1769,0.1807,0.181,0.1815,0.1813,0.185,0.1849,0.1848,0.182,0.1816,0.1813,0,0,0,0,0,0,0.1567,0.161,0.1624,0.1638,0.1659,0.1695,0.1699,0.1715,0.1734,0.1736,0.1766,0.1773,0.1785,0.18,0.1802,0.1818,0.1831,0.1831,0.1807,0.1804,0.1801,0.1797,0.1827,0,0,0,0,0,0.1561,0.1577,0.1613,0.1622,0.1633,0.1664,0.1674,0.1693,0.1716,0.1725,0.1747,0.1768,0.1785,0.1795,0.1812,0.1821,0.1828,0.1822,0.1819,0.1817,0.1816,0.1821,0.1819,0.1845,0.1845,0.1845,0,0,0.1548,0.1574,0.1582,0.1616,0.1635,0.1649,0.1671,0.1686,0.1697,0.1727,0.1742,0.1759,0.1784,0.1796,0.1802,0.1809,0.181,0.1815,0.1813,0.1814,0.182,0.1817,0.1815,0.1844,0.1844,0.1845,0,0,0.1533,0.1554,0.1563,0.1582,0.1611,0.1632,0.1634,0.1667,0.168,0.1696,0.1719,0.1731,0.1759,0.1776,0.1789,0.1779,0.1794,0.1783,0.1768,0.1772,0.177,0.1769,0.1764,0.1762,0.1783,0.1783,0.1783,0,0.1513,0.1537,0.1566,0.1579,0.1593,0.1622,0.1631,0.1647,0.1679,0.1688,0.1696,0.1731,0.1751,0.1766,0.1763,0.1773,0.1775,0.178,0.1769,0.1767,0.1766,0.1762,0.176,0.1781,0.1781,0.1781,0.1782,0,0.1511,0.1527,0.1531,0.1563,0.1577,0.1588,0.1617,0.1627,0.1644,0.1663,0.1678,0.1702,0.1725,0.173,0.1746,0.1747,0.175,0.1763,0.1777,0.1761,0.1758,0.1757,0.1779,0.1779,0.178,0.178,0,0,0.1474,0.1522,0.1523,0.1537,0.1571,0.1583,0.1595,0.1618,0.1626,0.1647,0.1657,0.168,0.1691,0.1705,0.1723,0.1727,0.1717,0.1739,0.174,0.1734,0.1718,0.1708,0.1706,0.1728,0.1727,0.1727,0.1716,0,0.1463,0.1487,0.1513,0.1527,0.1542,0.157,0.158,0.1601,0.1619,0.1633,0.1652,0.1668,0.1683,0.1691,0.1696,0.1717,0.1714,0.1718,0.1736,0.1736,0.1728,0.1705,0.1694,0.1683,0.1715,0.1715,0.1715,0,0.1454,0.1474,0.149,0.1522,0.1529,0.1538,0.1561,0.1574,0.1598,0.1611,0.1626,0.1646,0.1658,0.167,0.1687,0.1689,0.1698,0.1709,0.1709,0.1711,0.1724,0.1706,0.168,0.1678,0.1713,0.1713,0.1714,0,0.1424,0.1456,0.147,0.1481,0.1519,0.1524,0.154,0.1564,0.1576,0.1595,0.1603,0.1623,0.1634,0.1648,0.1672,0.1679,0.1686,0.17,0.1696,0.1695,0.1696,0.1695,0.167,0.1702,0.1702,0.1702,0.1702,0,0.1409,0.1417,0.1457,0.1465,0.1475,0.1504,0.1513,0.1531,0.1552,0.1564,0.1588,0.1598,0.1629,0.1642,0.1661,0.1671,0.1676,0.1686,0.169,0.1683,0.1682,0.1689,0.169,0.1702,0.1702,0.1702,0.1702,0,0.1378,0.1405,0.1422,0.1456,0.1465,0.147,0.1499,0.1508,0.1527,0.1541,0.1546,0.1576,0.1593,0.1618,0.1642,0.1654,0.1662,0.167,0.1654,0.1657,0.165,0.165,0.1628,0.1627,0.166,0.166,0.166,0,0.1366,0.1373,0.1409,0.1419,0.1434,0.1449,0.1462,0.149,0.1502,0.1529,0.1534,0.1553,0.1569,0.1594,0.1617,0.1635,0.1644,0.1635,0.1647,0.1639,0.1643,0.1642,0.1642,0.1632,0.1631,0.1631,0.1631,0,0.1342,0.1355,0.1372,0.1394,0.1409,0.1427,0.1446,0.1453,0.1485,0.1497,0.1515,0.1527,0.1552,0.157,0.1591,0.1606,0.1623,0.1627,0.1627,0.1619,0.1609,0.1614,0.1646,0.1627,0.1627,0.1628,0.1628,0.1628,0.132,0.1327,0.1353,0.1372,0.1389,0.1407,0.1416,0.1437,0.1453,0.1476,0.1492,0.1508,0.1531,0.1562,0.1575,0.1588,0.1596,0.1595,0.1595,0.1595,0.1592,0.1608,0.1592,0.1592,0.1592,0.1592,0.1593,0,0.1296,0.1314,0.1331,0.1358,0.1372,0.1388,0.141,0.1421,0.1435,0.1456,0.1472,0.1491,0.1509,0.1533,0.1552,0.1557,0.1566,0.1561,0.1561,0.1564,0.1584,0.1582,0.1554,0.1554,0.1554,0.1554,0.1554,0.1554,0.1285,0.1299,0.1315,0.1337,0.1355,0.1372,0.1383,0.1399,0.1415,0.1437,0.1452,0.1468,0.149,0.151,0.1527,0.1533,0.1539,0.1532,0.1541,0.1559,0.1563,0.1566,0.1564,0.1533,0.1533,0.1519,0.1519,0.1519]},{"header":{"parameterUnit":"m.s-1","parameterCategory":1,"la1":30.2991,"la2":30.254,"lo1":-89.0895,"lo2":-89.0444,"dy":0.0017,"dx":0.0017,"nx":28,"ny":28,"refTime":"2024-05-29T21:00:00:Z","depth":0,"parameterNumber":3,"parameterNumberName":"V-component_of_WINDS"},"data":[0,0,0,0,0,0,0,0,0,0,0,0,0,0,0,0,0,0,0,0,0,0,0,0,0,0,0,0,0,0,0,0,0,0,0,0,0,0,0,0,0,0,0,0,0,0,0,0,0,0,0,0,0,0,0,0,0,0,1.6147,1.6147,0,1.6158,1.6158,1.6158,1.6098,1.6096,1.6094,1.6093,1.6104,1.6106,1.6108,0,0,0,0,0,0,0,0,0,0,0,0,0,1.6075,1.6077,1.6147,1.6147,1.6147,1.6158,1.6158,1.6158,1.6098,1.6096,1.6094,1.6092,1.6103,1.6105,1.6108,0,0,0,0,0,0,0,0,0,0,0,0,0,1.6098,1.6077,1.6147,1.6119,1.6116,1.6158,1.6158,1.6158,1.6098,1.6096,1.6093,1.6091,1.6102,1.6105,1.6108,1.6177,0,0,1.6117,1.6118,0,0,0,0,0,0,0,0,1.6097,1.6101,1.6123,1.6121,1.6118,1.6124,1.6136,1.6165,1.6099,1.6105,1.6092,1.6089,1.6113,1.6114,1.6122,1.6178,1.6178,1.6117,1.6119,1.612,1.6121,0,0,0,0,0,0,0,1.6095,1.61,1.6151,1.6123,1.612,1.6105,1.6106,1.6141,1.6123,1.6104,1.61,1.6102,1.6111,1.6119,1.6122,1.6179,1.6117,1.6119,1.6121,1.6122,1.6292,1.6294,0,0,0,0,0,0,1.6097,1.6099,1.6151,1.6152,1.6101,1.6109,1.6109,1.6125,1.6123,1.612,1.6104,1.6099,1.6116,1.6119,1.6122,1.6203,1.612,1.6123,1.6124,1.6289,1.6292,1.6295,0,0,0,0,0,0,1.6096,1.6103,1.6151,1.6124,1.6129,1.6113,1.613,1.6126,1.6135,1.6123,1.6119,1.6117,1.6114,1.6118,1.6164,1.6203,1.6124,1.6127,1.6286,1.629,1.6294,1.6366,0,0,0,0,0,0,1.6094,1.6103,1.6129,1.6125,1.6131,1.6193,1.6133,1.6128,1.614,1.6133,1.6133,1.6131,1.6112,1.616,1.6167,1.6205,1.6129,1.6282,1.6287,1.6292,1.636,1.6372,1.6382,0,0,0,0,0,1.6092,1.6149,1.6131,1.6137,1.6163,1.6195,1.6198,1.6176,1.6143,1.6169,1.6161,1.6131,1.6197,1.6165,1.6172,1.6212,1.6279,1.6286,1.6292,1.6355,1.637,1.6382,0,0,0,0,0,0,1.6158,1.6148,1.6127,1.6185,1.6191,1.6185,1.6217,1.6192,1.6208,1.6201,1.6172,1.6173,1.6224,1.6222,1.6187,1.6279,1.6233,1.6241,1.6278,1.6292,1.6303,1.6302,1.6131,0,0,0,0,0,1.6179,1.6206,1.6196,1.6247,1.6252,1.6234,1.6247,1.6229,1.6234,1.6237,1.6232,1.6239,1.6261,1.6276,1.6296,1.6359,1.6358,1.639,1.6401,1.6411,1.6418,1.6451,1.6465,1.6316,1.6316,1.6316,0,0,1.6224,1.6221,1.624,1.6261,1.6263,1.6292,1.6237,1.6269,1.6289,1.6242,1.6285,1.6282,1.6287,1.6342,1.6366,1.6342,1.6459,1.6418,1.6426,1.6428,1.6459,1.6473,1.6486,1.632,1.6319,1.6318,0,0,1.6319,1.632,1.6363,1.6367,1.6371,1.6359,1.637,1.6367,1.6363,1.6405,1.637,1.6394,1.6433,1.6438,1.6446,1.6542,1.6514,1.6549,1.6608,1.6641,1.6652,1.6663,1.6697,1.671,1.6557,1.6557,1.6557,0,1.6373,1.6414,1.6388,1.6423,1.6433,1.639,1.6434,1.6439,1.645,1.6458,1.6431,1.6479,1.6479,1.6535,1.6558,1.6566,1.6577,1.655,1.6653,1.6663,1.6672,1.6704,1.6718,1.6561,1.6561,1.656,1.656,0,1.6481,1.651,1.6544,1.6556,1.6569,1.6608,1.6588,1.6605,1.6586,1.6577,1.662,1.6619,1.6638,1.665,1.6631,1.6703,1.6688,1.6658,1.661,1.6691,1.6721,1.6733,1.6567,1.6566,1.6564,1.6563,0,0,1.6619,1.6615,1.6628,1.6633,1.6634,1.6656,1.6693,1.6711,1.6726,1.6735,1.6765,1.6798,1.677,1.6779,1.6761,1.6789,1.6865,1.6755,1.6755,1.6776,1.6944,1.6967,1.6982,1.6847,1.6849,1.6851,1.6944,0,1.6712,1.6775,1.6752,1.6816,1.6842,1.6802,1.6834,1.6838,1.683,1.6851,1.6842,1.6867,1.6827,1.6832,1.6859,1.6851,1.6899,1.6844,1.6875,1.6876,1.6875,1.6998,1.7023,1.711,1.6955,1.6957,1.6958,0,1.683,1.6843,1.6909,1.6906,1.6916,1.6945,1.696,1.698,1.6984,1.6976,1.6986,1.6961,1.6997,1.6949,1.6998,1.6961,1.6972,1.697,1.6973,1.6975,1.6923,1.7004,1.7137,1.7151,1.6977,1.6975,1.6974,0,1.6924,1.6958,1.7002,1.7007,1.7004,1.7026,1.7026,1.7027,1.7039,1.7052,1.7059,1.7076,1.7085,1.7099,1.7079,1.7046,1.7131,1.7081,1.7125,1.7126,1.7145,1.7144,1.7283,1.7152,1.7152,1.7152,1.7151,0,1.7031,1.7073,1.7045,1.7072,1.7118,1.7091,1.7138,1.7133,1.7134,1.716,1.7126,1.715,1.7123,1.7145,1.713,1.7172,1.7177,1.7171,1.7167,1.7175,1.7175,1.7182,1.7176,1.7155,1.7154,1.7154,1.7153,0,1.7145,1.7127,1.7172,1.7166,1.7165,1.7199,1.7193,1.7218,1.7207,1.724,1.7246,1.7229,1.7253,1.7235,1.7259,1.7248,1.7305,1.7291,1.7304,1.73,1.7345,1.7341,1.7493,1.7512,1.7368,1.737,1.7371,0,1.7214,1.7246,1.7242,1.7256,1.7258,1.7282,1.7294,1.7269,1.7283,1.7289,1.7313,1.7334,1.735,1.739,1.738,1.7398,1.7385,1.7437,1.7388,1.7395,1.7387,1.7385,1.7388,1.7448,1.7449,1.7451,1.7452,0,1.734,1.7329,1.7348,1.7363,1.7378,1.7389,1.7398,1.7412,1.7386,1.7403,1.7427,1.7439,1.7463,1.7484,1.7499,1.7498,1.7471,1.7467,1.7478,1.7487,1.7493,1.7491,1.7331,1.7464,1.7463,1.7462,1.7461,1.7461,1.7434,1.7459,1.7461,1.7482,1.7486,1.7494,1.7517,1.7509,1.7528,1.7546,1.7529,1.7558,1.7561,1.7577,1.758,1.7603,1.7581,1.7597,1.7601,1.7606,1.7612,1.7489,1.7605,1.7605,1.7604,1.7604,1.7604,0,1.7557,1.7556,1.7576,1.7589,1.7606,1.7577,1.7585,1.7601,1.7627,1.7632,1.7647,1.7675,1.7695,1.7687,1.7705,1.7724,1.7712,1.773,1.7728,1.7729,1.763,1.7619,1.7739,1.7739,1.7739,1.7739,1.7739,1.7739,1.7624,1.7667,1.7656,1.77,1.7698,1.7726,1.7733,1.774,1.7743,1.7776,1.7792,1.7786,1.7785,1.7803,1.782,1.7817,1.7825,1.7848,1.784,1.7749,1.7736,1.7723,1.7712,1.785,1.785,1.7937,1.7938,1.7938]}]]